BEIDOU-2 G4

Last updated on Sat Dec 13 2025 00:02:47 GMT+0000 (Coordinated Universal Time)

1 37210U 10057A 25346.23675888 -.00000102 00000+0 00000+0 0 9995 2 37210 3.1837 69.9403 0010887 190.7636 65.7887 1.00271455 55415
UTC large
Height (km)
Speed (km/s)
/
Latitude / Longitude
Inclination (degrees)
Orbital Period (minutes)
Azimuth
Elevation
Range (km)
Doppler Factor

Next 0 passes for location: London (51.5072 / 0.1276)

Sorry there are no passes over London.